This demonstration page uses our WeatherBlox Daily Observations layout. Learn more.

Left ArrowRight Arrow

38.83388, -104.82136

Hourly Observations for August 27, 2022

Temp ( °F °C ) Dew Point ( °F °C ) Humidity (%) Winds ( mph kmh ) Pressure ( in mb ) Visibility ( mi km ) Precip ( " mm )
12:56 am 00:56 Mostly Cloudy 62 16.5 48 8.7 60 60 WNW 6 9 29.35 994 10 16 0.00 0.00
1:56 am 01:56 Clear 61 15.9 47 8.6 62 62 Calm 29.34 993 10 16 0.00 0.00
2:56 am 02:56 Partly Cloudy 61 15.9 47 8.6 62 62 Calm 29.33 993 10 16 0.00 0.00
3:56 am 03:56 Mostly Cloudy 60 15.6 47 8.3 62 62 WNW 5 7 29.36 994 10 16 0.00 0.00
4:56 am 04:56 Clear 62 16.7 45 7.3 54 54 NW 6 9 29.36 994 10 16 0.00 0.00
5:56 am 05:56 Mostly Cloudy 60 15.4 46 7.7 60 60 NW 5 7 29.34 993 10 16 0.00 0.00
6:56 am 06:56 Mostly Cloudy 62 16.6 45 7 53 53 Calm 29.38 995 10 16 0.00 0.00
7:56 am 07:56 Mostly Sunny 67 19.7 40 4.6 37 37 Calm 29.52 1000 10 16 0.00 0.00
8:56 am 08:56 Sunny 71 21.9 41 4.9 33 33 N 12 19 29.65 1004 10 16 0.00 0.00
9:56 am 09:56 Sunny 74 23.2 41 5.1 31 31 N 9 15 29.69 1006 10 16 0.00 0.00
10:56 am 10:56 Sunny 76 24.3 39 4.1 27 27 N 6 9 29.72 1007 10 16 0.00 0.00
11:56 am 11:56 Sunny 78 25.6 39 4.1 25 25 NE 6 9 29.72 1007 10 16 0.00 0.00
12:56 pm 12:56 Partly Cloudy 75 23.8 38 3.1 26 26 Calm 29.64 1004 10 16 0.00 0.00
1:56 pm 13:56 Mostly Sunny 76 24.6 37 2.7 24 24 SW 8 13 29.66 1004 10 16 0.00 0.00
2:56 pm 14:56 Partly Cloudy 78 25.7 40 4.7 26 26 SSE 12 19 29.63 1003 10 16 0.00 0.00
3:56 pm 15:56 Sunny 74 23.6 39 4 28 28 S 8 13 29.52 1000 10 16 0.00 0.00
4:56 pm 16:56 Mostly Cloudy 75 23.9 39 3.8 27 27 SW 5 7 29.52 1000 10 16 0.00 0.00
5:56 pm 17:56 Mostly Cloudy 74 23.3 41 5.2 31 31 Calm 29.46 998 10 16 0.00 0.00
6:14 pm 18:14 Cloudy with Light Rain 73 23 41 5 31 31 Calm 29.44 997 10 16 0.00 0.00
6:56 pm 18:56 Cloudy 74 23.1 39 4.1 29 29 WSW 3 6 29.39 995 10 16 0.01 0.13
7:56 pm 19:56 Partly Cloudy 73 22.9 36 2.4 26 26 W 6 9 29.40 996 10 16 0.00 0.00
8:56 pm 20:56 Mostly Cloudy 74 23.2 35 1.5 24 24 WSW 6 9 29.39 995 10 16 0.00 0.00
9:56 pm 21:56 Mostly Cloudy 71 21.4 38 3.1 30 30 SW 3 6 29.34 994 10 16 0.00 0.00
10:56 pm 22:56 Mostly Clear 72 22 34 1.1 25 25 W 5 7 29.33 993 10 16 0.00 0.00
11:56 pm 23:56 Clear 68 20.2 37 2.5 31 31 W 3 6 29.27 991 10 16 0.00 0.00

Powered by AerisWeather